Location: El Bakhil
(32.7726°N, 5.5387°W)
Time: 11:15:06
(UTC+00:00)

MOS 1 Rocket - Pass Details

Date: 03 March 2021
Orbit: 615 x 829 km, 97.4° (Epoch: 15 April)

Event Time Altitude Azimuth Distance (km) Brightness Sun altitude
Rises 18:36:07 0° 5° (N) 3,222 6.6 -4.0°
Reaches altitude 10° 18:38:24 10° 2° (N) 2,322 5.9 -4.4°
Maximum altitude 18:43:27 56° 285° (WNW) 943 4.4 -5.5°
Drops below altitude 10° 18:48:40 10° 208° (SSW) 2,404 6.5 -6.6°
Sets 18:51:05 0° 204° (SSW) 3,345 7.2 -7.1°
